When you browse on this site, cookies collect data to enhance your experience and personalize the content and advertising you see.
Visit our Privacy Policy to learn more. By continuing to use the site, you agree to this use of cookies and data.
  • In Schweiz
  • Länderverzeichnis
  • Für 7 Tage
  • Wassertemperatur
  • Wetterkarte
  • Widgets
  • user-avatar
    Anmelden

    Stündliche Wetter Ouahigouya

    Heute, 29 März, Sonntag

    Zeit Temperatur Niederschläge Wind Luftdruck Luftfeuchtigkeit
    00:00 +31°C° 0 mm 2 m/S 728 mmHg 12%
    01:00 +31°C° 0 mm 2 m/S 728 mmHg 12%
    02:00 +31°C° 0 mm 3 m/S 727 mmHg 13%
    03:00 +31°C° 0 mm 3 m/S 727 mmHg 13%
    04:00 +30°C° 0 mm 3 m/S 727 mmHg 14%
    05:00 +30°C° 0 mm 3 m/S 727 mmHg 15%
    06:00 +29°C° 0 mm 3 m/S 727 mmHg 16%
    07:00 +33°C° 0 mm 4 m/S 728 mmHg 14%
    08:00 +35°C° 0 mm 5 m/S 729 mmHg 12%
    09:00 +39°C° 0 mm 5 m/S 730 mmHg 10%
    10:00 +41°C° 0 mm 5 m/S 729 mmHg 9%
    11:00 +42°C° 0 mm 5 m/S 729 mmHg 8%
    12:00 +44°C° 0 mm 4 m/S 728 mmHg 7%
    13:00 +45°C° 0 mm 4 m/S 728 mmHg 7%
    14:00 +45°C° 0 mm 4 m/S 727 mmHg 7%
    15:00 +45°C° 0 mm 4 m/S 726 mmHg 7%
    16:00 +44°C° 0 mm 4 m/S 726 mmHg 8%
    17:00 +42°C° 0 mm 3 m/S 726 mmHg 9%
    18:00 +40°C° 0 mm 3 m/S 726 mmHg 11%
    19:00 +38°C° 0 mm 3 m/S 726 mmHg 12%
    20:00 +36°C° 0 mm 3 m/S 726 mmHg 14%
    21:00 +35°C° 0 mm 4 m/S 727 mmHg 16%
    22:00 +34°C° 0 mm 4 m/S 727 mmHg 17%
    23:00 +33°C° 0 mm 4 m/S 727 mmHg 18%

    Morgen, 30 März, Montag

    Zeit Temperatur Niederschläge Wind Luftdruck Luftfeuchtigkeit
    00:00 +32°C° 0 mm 4 m/S 726 mmHg 19%
    01:00 +31°C° 0 mm 3 m/S 726 mmHg 21%
    02:00 +30°C° 0 mm 3 m/S 726 mmHg 22%
    03:00 +29°C° 0 mm 3 m/S 726 mmHg 23%
    04:00 +29°C° 0 mm 3 m/S 726 mmHg 22%
    05:00 +29°C° 0 mm 4 m/S 726 mmHg 22%
    06:00 +28°C° 0 mm 4 m/S 726 mmHg 21%
    07:00 +32°C° 0 mm 5 m/S 727 mmHg 18%
    08:00 +35°C° 0 mm 6 m/S 728 mmHg 16%
    09:00 +38°C° 0 mm 8 m/S 728 mmHg 13%
    10:00 +40°C° 0 mm 7 m/S 728 mmHg 12%
    11:00 +43°C° 0 mm 7 m/S 727 mmHg 11%
    12:00 +45°C° 0 mm 6 m/S 727 mmHg 10%
    13:00 +45°C° 0 mm 5 m/S 726 mmHg 9%
    14:00 +46°C° 0 mm 5 m/S 726 mmHg 9%
    15:00 +45°C° 0 mm 4 m/S 725 mmHg 8%
    16:00 +44°C° 0 mm 4 m/S 725 mmHg 9%
    17:00 +43°C° 0 mm 4 m/S 725 mmHg 9%
    18:00 +42°C° 0 mm 3 m/S 725 mmHg 10%
    19:00 +39°C° 0 mm 3 m/S 725 mmHg 11%
    20:00 +38°C° 0 mm 4 m/S 726 mmHg 12%
    21:00 +36°C° 0 mm 4 m/S 726 mmHg 13%
    22:00 +35°C° 0 mm 4 m/S 726 mmHg 14%
    23:00 +34°C° 0 mm 4 m/S 726 mmHg 15%

    übermorgen, 31 März, Dienstag

    Zeit Temperatur Niederschläge Wind Luftdruck Luftfeuchtigkeit
    00:00 +33°C° 0 mm 5 m/S 726 mmHg 16%
    01:00 +32°C° 0 mm 5 m/S 726 mmHg 17%
    02:00 +32°C° 0 mm 4 m/S 725 mmHg 17%
    03:00 +30°C° 0 mm 4 m/S 725 mmHg 17%
    04:00 +29°C° 0 mm 4 m/S 726 mmHg 18%
    05:00 +29°C° 0 mm 4 m/S 726 mmHg 18%
    06:00 +28°C° 0 mm 4 m/S 726 mmHg 18%
    07:00 +32°C° 0 mm 5 m/S 727 mmHg 15%
    08:00 +34°C° 0 mm 5 m/S 728 mmHg 12%
    09:00 +38°C° 0 mm 6 m/S 729 mmHg 9%
    10:00 +40°C° 0 mm 6 m/S 728 mmHg 8%
    11:00 +42°C° 0 mm 6 m/S 728 mmHg 8%
    12:00 +45°C° 0 mm 6 m/S 728 mmHg 7%
    13:00 +46°C° 0 mm 5 m/S 727 mmHg 7%
    14:00 +45°C° 0 mm 4 m/S 726 mmHg 7%
    15:00 +45°C° 0 mm 4 m/S 726 mmHg 7%
    16:00 +44°C° 0 mm 3 m/S 726 mmHg 8%
    17:00 +43°C° 0 mm 3 m/S 725 mmHg 9%
    18:00 +42°C° 0 mm 3 m/S 725 mmHg 10%
    19:00 +39°C° 0 mm 3 m/S 726 mmHg 11%
    20:00 +38°C° 0 mm 3 m/S 726 mmHg 12%
    21:00 +36°C° 0 mm 4 m/S 726 mmHg 13%
    22:00 +35°C° 0 mm 4 m/S 726 mmHg 13%
    23:00 +35°C° 0 mm 4 m/S 727 mmHg 14%

    1 April, Mittwoch

    Zeit Temperatur Niederschläge Wind Luftdruck Luftfeuchtigkeit
    00:00 +34°C° 0 mm 4 m/S 727 mmHg 14%
    01:00 +33°C° 0 mm 4 m/S 727 mmHg 14%
    02:00 +33°C° 0 mm 5 m/S 726 mmHg 15%
    03:00 +32°C° 0 mm 5 m/S 726 mmHg 15%
    04:00 +30°C° 0 mm 5 m/S 727 mmHg 14%
    05:00 +30°C° 0 mm 5 m/S 727 mmHg 13%
    06:00 +29°C° 0 mm 5 m/S 727 mmHg 13%
    07:00 +33°C° 0 mm 6 m/S 728 mmHg 11%
    08:00 +36°C° 0 mm 7 m/S 728 mmHg 9%
    09:00 +39°C° 0 mm 8 m/S 729 mmHg 7%
    10:00 +41°C° 0 mm 7 m/S 729 mmHg 7%
    11:00 +44°C° 0 mm 7 m/S 728 mmHg 6%
    12:00 +47°C° 0 mm 6 m/S 728 mmHg 6%
    13:00 +47°C° 0 mm 5 m/S 727 mmHg 6%
    14:00 +47°C° 0 mm 5 m/S 726 mmHg 6%
    15:00 +48°C° 0 mm 4 m/S 725 mmHg 6%
    16:00 +45°C° 0 mm 3 m/S 725 mmHg 7%
    17:00 +44°C° 0 mm 3 m/S 725 mmHg 7%
    18:00 +42°C° 0 mm 3 m/S 725 mmHg 8%
    19:00 +39°C° 0 mm 3 m/S 725 mmHg 8%
    20:00 +38°C° 0 mm 3 m/S 726 mmHg 9%
    21:00 +36°C° 0 mm 4 m/S 726 mmHg 10%
    22:00 +35°C° 0 mm 4 m/S 727 mmHg 11%
    23:00 +34°C° 0 mm 3 m/S 727 mmHg 12%

    2 April, Donnerstag

    Zeit Temperatur Niederschläge Wind Luftdruck Luftfeuchtigkeit
    00:00 +33°C° 0 mm 3 m/S 727 mmHg 13%
    01:00 +31°C° 0 mm 3 m/S 727 mmHg 13%
    02:00 +30°C° 0 mm 3 m/S 726 mmHg 14%
    03:00 +29°C° 0 mm 3 m/S 726 mmHg 14%
    04:00 +28°C° 0 mm 3 m/S 726 mmHg 14%
    05:00 +28°C° 0 mm 3 m/S 726 mmHg 13%
    06:00 +27°C° 0 mm 2 m/S 727 mmHg 13%
    07:00 +30°C° 0 mm 3 m/S 727 mmHg 11%
    08:00 +34°C° 0 mm 3 m/S 728 mmHg 9%
    09:00 +37°C° 0 mm 4 m/S 729 mmHg 7%
    10:00 +40°C° 0 mm 4 m/S 729 mmHg 7%
    11:00 +42°C° 0 mm 4 m/S 728 mmHg 6%
    12:00 +44°C° 0 mm 4 m/S 728 mmHg 5%
    13:00 +44°C° 0 mm 3 m/S 727 mmHg 5%
    14:00 +45°C° 0 mm 3 m/S 726 mmHg 5%
    15:00 +46°C° 0 mm 3 m/S 725 mmHg 5%
    16:00 +43°C° 0 mm 2 m/S 725 mmHg 6%
    17:00 +41°C° 0 mm 2 m/S 725 mmHg 7%
    18:00 +39°C° 0 mm 1 m/S 725 mmHg 8%
    19:00 +36°C° 0 mm 1 m/S 725 mmHg 9%
    20:00 +34°C° 0 mm 1 m/S 725 mmHg 9%
    21:00 +32°C° 0 mm 1 m/S 726 mmHg 10%
    22:00 +32°C° 0 mm 1 m/S 726 mmHg 10%
    23:00 +32°C° 0 mm 2 m/S 726 mmHg 10%

    3 April, Freitag

    Zeit Temperatur Niederschläge Wind Luftdruck Luftfeuchtigkeit
    00:00 +32°C° 0 mm 2 m/S 726 mmHg 10%
    01:00 +33°C° 0 mm 3 m/S 726 mmHg 10%
    02:00 +31°C° 0 mm 3 m/S 725 mmHg 11%
    03:00 +31°C° 0 mm 3 m/S 725 mmHg 11%
    04:00 +30°C° 0 mm 3 m/S 725 mmHg 11%
    05:00 +30°C° 0 mm 4 m/S 725 mmHg 11%
    06:00 +29°C° 0 mm 4 m/S 725 mmHg 11%
    07:00 +33°C° 0 mm 4 m/S 726 mmHg 9%
    08:00 +36°C° 0 mm 4 m/S 727 mmHg 8%
    09:00 +40°C° 0 mm 5 m/S 727 mmHg 6%
    10:00 +42°C° 0 mm 4 m/S 727 mmHg 6%
    11:00 +44°C° 0 mm 4 m/S 727 mmHg 5%
    12:00 +47°C° 0 mm 4 m/S 726 mmHg 4%
    13:00 +47°C° 0 mm 4 m/S 725 mmHg 4%
    14:00 +48°C° 0 mm 4 m/S 725 mmHg 4%
    15:00 +47°C° 0 mm 3 m/S 724 mmHg 4%
    16:00 +46°C° 0 mm 3 m/S 724 mmHg 5%
    17:00 +44°C° 0 mm 3 m/S 724 mmHg 5%
    18:00 +41°C° 0 mm 2 m/S 724 mmHg 6%
    19:00 +39°C° 0 mm 2 m/S 724 mmHg 7%
    20:00 +37°C° 0 mm 2 m/S 724 mmHg 8%
    21:00 +35°C° 0 mm 2 m/S 725 mmHg 9%
    22:00 +34°C° 0 mm 2 m/S 725 mmHg 9%
    23:00 +32°C° 0 mm 1 m/S 725 mmHg 10%
    Mehr zeigen